ROBUSTA 1B

Last updated on Tue Oct 17 2023 00:03:36 GMT+0000 (Coordinated Universal Time)

1 42792U 17036AD 23289.61158726 .08022688 23389-5 11614-2 0 9990 2 42792 97.0969 333.0281 0008497 261.8195 98.2139 16.34664899352273

Satellite not in orbit